When you browse on this site, cookies collect data to enhance your experience and personalize the content and advertising you see.
Visit our Privacy Policy to learn more. By continuing to use the site, you agree to this use of cookies and data.
  • In United Kingdom
  • List of Countries
  • For 7 days
  • Water Temperature
  • Weather Map
  • Weather Widgets
  • user-avatar
    Login

    Hourly Weather Filiasi

    Today, 6 December, Friday

    Time Temperature Precipitation Wind Pressure Humidity
    00:00 0°C° 0 mm 0 mps 761 mmHg 74%
    01:00 0°C° 0 mm 0 mps 761 mmHg 74%
    02:00 0°C° 0 mm 0 mps 761 mmHg 75%
    03:00 -1°C° 0 mm 0 mps 760 mmHg 76%
    04:00 -1°C° 0 mm 0 mps 760 mmHg 77%
    05:00 -1°C° 0 mm 0 mps 759 mmHg 77%
    06:00 -1°C° 0 mm 0 mps 760 mmHg 78%
    07:00 -1°C° 0 mm 0 mps 760 mmHg 79%
    08:00 -1°C° 0 mm 0 mps 760 mmHg 79%
    09:00 +1°C° 0 mm 1 mps 760 mmHg 74%
    10:00 +3°C° 0 mm 1 mps 759 mmHg 68%
    11:00 +4°C° 0 mm 1 mps 759 mmHg 62%
    12:00 +5°C° 0 mm 1 mps 759 mmHg 61%
    13:00 +6°C° 0 mm 1 mps 758 mmHg 59%
    14:00 +5°C° 0 mm 2 mps 758 mmHg 58%
    15:00 +5°C° 0 mm 1 mps 758 mmHg 63%
    16:00 +4°C° 0 mm 1 mps 757 mmHg 69%
    17:00 +3°C° 0 mm 1 mps 757 mmHg 74%
    18:00 +3°C° 0 mm 1 mps 757 mmHg 76%
    19:00 +2°C° 0 mm 1 mps 757 mmHg 77%
    20:00 +1°C° 0 mm 0 mps 757 mmHg 79%
    21:00 +1°C° 0 mm 0 mps 757 mmHg 79%
    22:00 +2°C° 0 mm 1 mps 757 mmHg 79%
    23:00 +2°C° 0 mm 1 mps 756 mmHg 80%

    Tomorrow, 7 December, Saturday

    Time Temperature Precipitation Wind Pressure Humidity
    00:00 +1°C° 0 mm 0 mps 756 mmHg 78%
    01:00 +1°C° 0 mm 0 mps 756 mmHg 77%
    02:00 +1°C° 0 mm 0 mps 756 mmHg 76%
    03:00 +1°C° 0 mm 0 mps 755 mmHg 75%
    04:00 +2°C° 0 mm 0 mps 754 mmHg 74%
    05:00 +2°C° 0 mm 0 mps 754 mmHg 73%
    06:00 +2°C° 0 mm 0 mps 754 mmHg 71%
    07:00 +2°C° 0 mm 0 mps 754 mmHg 70%
    08:00 +3°C° 0 mm 1 mps 754 mmHg 69%
    09:00 +4°C° 0 mm 1 mps 753 mmHg 65%
    10:00 +6°C° 0 mm 1 mps 753 mmHg 62%
    11:00 +7°C° 0 mm 1 mps 753 mmHg 58%
    12:00 +8°C° 0 mm 1 mps 753 mmHg 58%
    13:00 +9°C° 0 mm 1 mps 753 mmHg 57%
    14:00 +9°C° 0 mm 2 mps 752 mmHg 57%
    15:00 +8°C° 0 mm 2 mps 752 mmHg 62%
    16:00 +7°C° 0 mm 2 mps 752 mmHg 67%
    17:00 +6°C° 0 mm 2 mps 752 mmHg 71%
    18:00 +6°C° 0 mm 2 mps 752 mmHg 75%
    19:00 +6°C° 0 mm 2 mps 752 mmHg 78%
    20:00 +6°C° 0 mm 2 mps 753 mmHg 81%
    21:00 +6°C° 0 mm 2 mps 753 mmHg 82%
    22:00 +6°C° 0 mm 2 mps 753 mmHg 84%
    23:00 +6°C° 0 mm 2 mps 753 mmHg 85%

    Day after tomorrow, 8 December, Sunday

    Time Temperature Precipitation Wind Pressure Humidity
    00:00 +5°C° 0 mm 2 mps 753 mmHg 86%
    01:00 +5°C° 0 mm 2 mps 753 mmHg 86%
    02:00 +5°C° 0 mm 2 mps 753 mmHg 86%
    03:00 +5°C° 0 mm 2 mps 753 mmHg 86%
    04:00 +5°C° 0 mm 2 mps 753 mmHg 85%
    05:00 +4°C° 0 mm 3 mps 753 mmHg 85%
    06:00 +5°C° 0 mm 2 mps 753 mmHg 85%
    07:00 +4°C° 0 mm 2 mps 754 mmHg 85%
    08:00 +4°C° 0 mm 2 mps 754 mmHg 84%
    09:00 +5°C° 0 mm 3 mps 754 mmHg 77%
    10:00 +8°C° 0 mm 3 mps 754 mmHg 69%
    11:00 +8°C° 0 mm 4 mps 754 mmHg 61%
    12:00 +10°C° 0 mm 4 mps 754 mmHg 57%
    13:00 +11°C° 0 mm 4 mps 754 mmHg 53%
    14:00 +12°C° 0 mm 4 mps 754 mmHg 48%
    15:00 +10°C° 0 mm 3 mps 754 mmHg 53%
    16:00 +9°C° 0 mm 3 mps 754 mmHg 58%
    17:00 +8°C° 0 mm 2 mps 754 mmHg 63%
    18:00 +7°C° 0 mm 2 mps 754 mmHg 66%
    19:00 +7°C° 0 mm 2 mps 754 mmHg 69%
    20:00 +7°C° 0 mm 1 mps 754 mmHg 72%
    21:00 +7°C° 0 mm 1 mps 753 mmHg 72%
    22:00 +7°C° 0 mm 1 mps 753 mmHg 72%
    23:00 +6°C° 0 mm 1 mps 753 mmHg 73%

    9 December, Monday

    Time Temperature Precipitation Wind Pressure Humidity
    00:00 +5°C° 0 mm 0 mps 753 mmHg 73%
    01:00 +5°C° 0 mm 0 mps 752 mmHg 74%
    02:00 +5°C° 0 mm 0 mps 752 mmHg 74%
    03:00 +4°C° 0 mm 0 mps 751 mmHg 76%
    04:00 +4°C° 0 mm 0 mps 751 mmHg 77%
    05:00 +4°C° 0 mm 0 mps 750 mmHg 78%
    06:00 +4°C° 0 mm 0 mps 750 mmHg 79%
    07:00 +3°C° 0 mm 0 mps 750 mmHg 80%
    08:00 +3°C° 0 mm 0 mps 750 mmHg 82%
    09:00 +4°C° 0 mm 0 mps 750 mmHg 77%
    10:00 +7°C° 0 mm 1 mps 749 mmHg 72%
    11:00 +8°C° 0 mm 1 mps 749 mmHg 67%
    12:00 +8°C° 0 mm 1 mps 748 mmHg 65%
    13:00 +9°C° 0 mm 1 mps 748 mmHg 63%
    14:00 +10°C° 0 mm 1 mps 747 mmHg 61%
    15:00 +9°C° 0 mm 1 mps 747 mmHg 65%
    16:00 +8°C° 0 mm 1 mps 746 mmHg 70%
    17:00 +7°C° 0 mm 1 mps 746 mmHg 74%
    18:00 +7°C° 0 mm 1 mps 746 mmHg 74%
    19:00 +7°C° 0 mm 1 mps 746 mmHg 75%
    20:00 +7°C° 0 mm 1 mps 745 mmHg 75%
    21:00 +7°C° 0.1 mm 1 mps 745 mmHg 75%
    22:00 +7°C° 0.1 mm 1 mps 745 mmHg 76%
    23:00 +6°C° 0.1 mm 0 mps 745 mmHg 76%

    10 December, Tuesday

    Time Temperature Precipitation Wind Pressure Humidity
    00:00 +7°C° 0.2 mm 1 mps 745 mmHg 80%
    01:00 +7°C° 0.2 mm 1 mps 745 mmHg 83%
    02:00 +7°C° 0.2 mm 1 mps 745 mmHg 87%
    03:00 +7°C° 0 mm 1 mps 745 mmHg 88%
    04:00 +6°C° 0 mm 2 mps 745 mmHg 89%
    05:00 +6°C° 0 mm 2 mps 746 mmHg 91%
    06:00 +4°C° 0 mm 3 mps 746 mmHg 90%
    07:00 +4°C° 0 mm 3 mps 746 mmHg 89%
    08:00 +4°C° 0 mm 3 mps 747 mmHg 89%
    09:00 +5°C° 0 mm 4 mps 747 mmHg 80%
    10:00 +7°C° 0 mm 5 mps 748 mmHg 71%
    11:00 +8°C° 0 mm 6 mps 749 mmHg 62%
    12:00 +9°C° 0 mm 6 mps 748 mmHg 58%
    13:00 +9°C° 0 mm 7 mps 748 mmHg 54%
    14:00 +9°C° 0 mm 7 mps 748 mmHg 50%
    15:00 +8°C° 0 mm 7 mps 749 mmHg 55%
    16:00 +6°C° 0 mm 7 mps 750 mmHg 59%
    17:00 +5°C° 0 mm 7 mps 750 mmHg 64%
    18:00 +4°C° 0 mm 6 mps 751 mmHg 67%
    19:00 +4°C° 0 mm 6 mps 751 mmHg 69%
    20:00 +3°C° 0 mm 6 mps 752 mmHg 72%
    21:00 +3°C° 0 mm 5 mps 752 mmHg 72%
    22:00 +3°C° 0 mm 4 mps 753 mmHg 73%
    23:00 +3°C° 0 mm 4 mps 754 mmHg 74%

    11 December, Wednesday

    Time Temperature Precipitation Wind Pressure Humidity
    00:00 +2°C° 0 mm 3 mps 754 mmHg 74%
    01:00 +2°C° 0 mm 3 mps 754 mmHg 74%
    02:00 +2°C° 0 mm 2 mps 755 mmHg 74%
    03:00 +2°C° 0 mm 2 mps 755 mmHg 75%
    04:00 +2°C° 0 mm 2 mps 755 mmHg 76%
    05:00 +1°C° 0 mm 2 mps 755 mmHg 77%
    06:00 +1°C° 0 mm 2 mps 755 mmHg 78%
    07:00 +2°C° 0 mm 1 mps 756 mmHg 79%
    08:00 +1°C° 0 mm 1 mps 756 mmHg 81%
    09:00 +3°C° 0 mm 1 mps 756 mmHg 74%
    10:00 +4°C° 0 mm 1 mps 756 mmHg 67%
    11:00 +5°C° 0 mm 1 mps 756 mmHg 60%
    12:00 +6°C° 0 mm 1 mps 756 mmHg 57%
    13:00 +7°C° 0 mm 1 mps 755 mmHg 53%
    14:00 +8°C° 0 mm 1 mps 755 mmHg 50%
    15:00 +7°C° 0 mm 1 mps 755 mmHg 53%
    16:00 +6°C° 0 mm 1 mps 754 mmHg 57%
    17:00 +5°C° 0 mm 1 mps 754 mmHg 60%
    18:00 +4°C° 0 mm 0 mps 754 mmHg 62%
    19:00 +4°C° 0 mm 0 mps 754 mmHg 63%
    20:00 +3°C° 0 mm 0 mps 754 mmHg 65%
    21:00 +3°C° 0 mm 0 mps 754 mmHg 66%
    22:00 +2°C° 0 mm 0 mps 754 mmHg 68%
    23:00 +2°C° 0 mm 0 mps 753 mmHg 69%
    Show more